Left ArrowRight Arrow

46.92218, -95.05863

Hourly Observations for April 7, 2023

Temp ( °F °C ) Dew Point ( °F °C ) Humidity (%) Winds ( mph kmh ) Pressure ( in mb ) Visibility ( mi km ) Precip ( " mm )
12:53 am 00:53 Clear 14 -10 9 -12.8 80 80 Calm 30.50 1033 10 16 0.00 0.00
1:53 am 01:53 Clear 10 -12.2 7 -13.9 87 87 Calm 30.50 1033 10 16 0.00 0.00
2:53 am 02:53 Clear 7 -13.9 3 -16.1 83 83 Calm 30.51 1033 10 16 0.00 0.00
3:53 am 03:53 Clear 6 -14.4 0 -17.8 75 75 Calm 30.51 1033 10 16 0.00 0.00
4:53 am 04:53 Clear 11 -11.7 6 -14.4 80 80 ENE 5 7 30.50 1033 10 16 0.00 0.00
5:53 am 05:53 Clear 5 -15 -1 -18.3 76 76 Calm 30.52 1033 10 16 0.00 0.00
6:53 am 06:53 Sunny 13 -10.6 9 -12.8 84 84 E 5 7 30.52 1033 10 16 0.00 0.00
7:53 am 07:53 Cloudy 18 -7.8 12 -11.1 77 77 E 6 9 30.54 1034 10 16 0.00 0.00
8:53 am 08:53 Cloudy 21 -6.1 13 -10.6 70 70 E 6 9 30.55 1034 10 16 0.00 0.00
9:53 am 09:53 Cloudy 25 -3.9 14 -10 62 62 ESE 6 9 30.53 1034 10 16 0.00 0.00
10:53 am 10:53 Cloudy 29 -1.7 15 -9.4 56 56 E 7 11 30.52 1033 10 16 0.00 0.00
11:53 am 11:53 Cloudy 32 0 16 -8.9 51 51 SE 7 11 30.52 1033 10 16 0.00 0.00
12:53 pm 12:53 Cloudy 33 0.6 15 -9.4 47 47 E 8 13 30.50 1033 10 16 0.00 0.00
1:53 pm 13:53 Cloudy 35 1.7 16 -8.9 45 45 E 9 15 30.48 1032 10 16 0.00 0.00
2:53 pm 14:53 Cloudy 38 3.3 17 -8.3 42 42 ENE 10 17 30.45 1031 10 16 0.00 0.00
3:53 pm 15:53 Mostly Cloudy 39 3.9 16 -8.9 39 39 E 9 15 30.43 1030 10 16 0.00 0.00
4:53 pm 16:53 Mostly Cloudy 40 4.4 15 -9.4 36 36 ENE 7 11 30.41 1030 10 16 0.00 0.00
5:53 pm 17:53 Partly Cloudy 41 5 15 -9.4 34 34 ESE 8 13 30.41 1030 10 16 0.00 0.00
6:53 pm 18:53 Cloudy 40 4.4 15 -9.4 36 36 ESE 7 11 30.40 1029 10 16 0.00 0.00
7:53 pm 19:53 Mostly Cloudy 38 3.3 16 -8.9 40 40 E 6 9 30.38 1029 10 16 0.00 0.00
8:53 pm 20:53 Clear 34 1.1 16 -8.9 47 47 ENE 5 7 30.38 1029 10 16 0.00 0.00
9:53 pm 21:53 Clear 32 0 17 -8.3 53 53 E 6 9 30.37 1029 10 16 0.00 0.00
10:53 pm 22:53 Clear 30 -1.1 16 -8.9 55 55 E 6 9 30.37 1029 10 16 0.00 0.00
11:53 pm 23:53 Clear 30 -1.1 15 -9.4 53 53 E 5 7 30.36 1028 10 16 0.00 0.00

Powered by Vaisala Xweather